[[{"header":{"parameterUnit":"m.s-1","parameterCategory":1,"la1":30.2992,"la2":30.254,"lo1":-89.0895,"lo2":-89.0443,"dy":0.0025,"dx":0.0025,"nx":19,"ny":19,"refTime":"2026-03-19T03:00:00:Z","depth":0,"parameterNumber":2,"parameterNumberName":"U-component_of_WINDS"},"data":[0,0,0,-0.1847,-0.1849,-0.1926,-0.1926,-0.2036,-0.2037,0,0,0,0,0,0,0,0,0,0,0,-0.183,-0.1831,-0.1847,-0.1849,-0.1926,-0.1926,-0.2035,-0.2037,0,0,0,0,0,0,0,0,0,0,0,-0.1829,-0.183,-0.1831,-0.185,-0.1925,-0.1926,-0.2035,-0.1974,0,0,0,0,0,0,0,0,0,0,-0.1898,-0.1886,-0.183,-0.1831,-0.185,-0.1925,-0.1926,-0.1971,-0.1978,-0.2005,0,-0.2029,0,-0.2035,-0.2045,-0.2045,0,0,0,-0.1846,-0.188,-0.1896,-0.1832,-0.1851,-0.1925,-0.189,-0.1974,-0.1982,-0.2015,-0.2031,-0.2035,-0.2036,-0.2045,-0.2046,-0.2212,-0.2213,0,0,-0.1842,-0.1847,-0.189,-0.1901,-0.1887,-0.1888,-0.1893,-0.1979,-0.1998,-0.2031,-0.2037,-0.2038,-0.2046,-0.2047,-0.2211,-0.2213,0,0,0,-0.1832,-0.1844,-0.1857,-0.1897,-0.1909,-0.189,-0.1896,-0.1994,-0.1998,-0.2038,-0.204,-0.2047,-0.2048,-0.221,-0.2212,-0.2263,0,0,0,-0.1829,-0.1838,-0.1856,-0.1859,-0.1908,-0.1952,-0.1909,-0.1992,-0.2001,-0.2039,-0.2047,-0.2049,-0.2209,-0.2211,-0.2259,-0.2287,0,0,0,-0.1823,-0.1837,-0.185,-0.186,-0.1892,-0.1951,-0.1959,-0.1994,-0.2003,-0.2045,-0.205,-0.2209,-0.2211,-0.2256,-0.2282,-0.2334,0,0,0,-0.1818,-0.1894,-0.1851,-0.1936,-0.1892,-0.198,-0.1959,-0.2025,-0.2067,-0.2047,-0.2209,-0.2212,-0.2255,-0.2279,-0.2331,-0.238,-0.2401,0,0,-0.1917,-0.1906,-0.1956,-0.1919,-0.2017,-0.1968,-0.2074,-0.2109,-0.211,-0.2179,-0.2183,-0.2261,-0.2282,-0.2333,-0.2509,-0.2526,0,0,0,-0.1989,-0.2025,-0.2049,-0.2089,-0.2116,-0.2143,-0.2161,-0.2174,-0.2232,-0.2145,-0.2292,-0.2304,-0.2335,-0.2359,-0.2372,-0.2399,-0.2222,-0.2222,-0.2222,-0.2136,-0.2131,-0.2214,-0.2219,-0.2258,-0.2275,-0.2307,-0.2328,-0.2312,-0.2347,-0.2369,-0.2476,-0.2504,-0.2514,-0.2542,-0.2392,-0.2393,-0.2393,-0.2393,-0.2282,-0.2333,-0.2309,-0.2381,-0.2377,-0.2438,-0.2458,-0.2445,-0.2503,-0.2459,-0.2486,-0.244,-0.2532,-0.2557,-0.2397,-0.2396,-0.2396,-0.2395,-0.2395,-0.238,-0.2404,-0.2417,-0.2475,-0.252,-0.2522,-0.2579,-0.2572,-0.2567,-0.2593,-0.2616,-0.2615,-0.2616,-0.2604,-0.2604,-0.2604,-0.2605,-0.2605,-0.2605,-0.2478,-0.2491,-0.2539,-0.2574,-0.2599,-0.2632,-0.265,-0.2676,-0.2703,-0.2694,-0.2694,-0.2677,-0.254,-0.2508,-0.2611,-0.261,-0.2609,-0.2609,-0.2608,-0.2632,-0.2596,-0.2669,-0.2695,-0.2737,-0.2784,-0.2773,-0.2826,-0.2846,-0.2875,-0.2851,-0.275,-0.274,-0.2729,-0.2702,-0.285,-0.285,-0.285,-0.285,-0.2717,-0.2709,-0.2784,-0.2826,-0.2865,-0.2863,-0.295,-0.2966,-0.2977,-0.299,-0.2966,-0.2929,-0.2918,-0.2915,-0.29,-0.2875,-0.3063,-0.3063,-0.3063,-0.2812,-0.2809,-0.2883,-0.2891,-0.2924,-0.2953,-0.3034,-0.3085,-0.309,-0.3072,-0.3,-0.2991,-0.2931,-0.2911,-0.2895,-0.2872,-0.2826,0,0]},{"header":{"parameterUnit":"m.s-1","parameterCategory":1,"la1":30.2992,"la2":30.254,"lo1":-89.0895,"lo2":-89.0443,"dy":0.0025,"dx":0.0025,"nx":19,"ny":19,"refTime":"2026-03-19T03:00:00:Z","depth":0,"parameterNumber":3,"parameterNumberName":"V-component_of_WINDS"},"data":[0,0,0,-1.4951,-1.4953,-1.5045,-1.5045,-1.5163,-1.5164,0,0,0,0,0,0,0,0,0,0,0,-1.4923,-1.4924,-1.4951,-1.4953,-1.5045,-1.5045,-1.5163,-1.5164,0,0,0,0,0,0,0,0,0,0,0,-1.4922,-1.4923,-1.4924,-1.4953,-1.5045,-1.5046,-1.5163,-1.5093,0,0,0,0,0,0,0,0,0,0,-1.5004,-1.4977,-1.4923,-1.4924,-1.4954,-1.5045,-1.5046,-1.509,-1.5098,-1.5121,0,-1.5141,0,-1.5155,-1.5172,-1.5172,0,0,0,-1.4953,-1.4971,-1.4996,-1.4925,-1.4955,-1.5045,-1.5004,-1.5094,-1.5103,-1.5131,-1.5143,-1.5147,-1.5157,-1.5173,-1.5173,-1.5307,-1.5308,0,0,-1.4948,-1.4939,-1.499,-1.5002,-1.4987,-1.5001,-1.5006,-1.5099,-1.5112,-1.5143,-1.515,-1.5158,-1.5173,-1.5174,-1.5307,-1.5307,0,0,0,-1.4933,-1.4936,-1.4959,-1.4997,-1.5014,-1.5003,-1.501,-1.5108,-1.5116,-1.5151,-1.516,-1.5174,-1.5176,-1.5306,-1.5307,-1.5329,0,0,0,-1.493,-1.4927,-1.4956,-1.4952,-1.5012,-1.5062,-1.5016,-1.511,-1.512,-1.5159,-1.5174,-1.5177,-1.5305,-1.5306,-1.5327,-1.5341,0,0,0,-1.4917,-1.4925,-1.4938,-1.4951,-1.499,-1.5061,-1.5074,-1.5112,-1.5126,-1.5172,-1.5177,-1.5305,-1.5306,-1.5325,-1.5338,-1.5375,0,0,0,-1.49,-1.4956,-1.4939,-1.5004,-1.499,-1.5073,-1.5074,-1.5136,-1.5179,-1.5175,-1.5305,-1.5307,-1.5324,-1.5336,-1.5373,-1.5405,-1.5417,0,0,-1.4965,-1.4963,-1.5003,-1.499,-1.5074,-1.506,-1.5147,-1.5195,-1.5207,-1.5273,-1.5277,-1.5327,-1.5338,-1.5374,-1.5486,-1.5495,0,0,0,-1.502,-1.5049,-1.5073,-1.5113,-1.5151,-1.5185,-1.522,-1.5238,-1.5294,-1.5239,-1.535,-1.5357,-1.5378,-1.5394,-1.5402,-1.5422,-1.5313,-1.5313,-1.5313,-1.51,-1.5113,-1.518,-1.5205,-1.5244,-1.528,-1.5313,-1.5343,-1.5345,-1.5371,-1.5391,-1.5457,-1.5475,-1.5481,-1.5502,-1.5408,-1.5408,-1.5408,-1.5408,-1.5198,-1.524,-1.5242,-1.5307,-1.5321,-1.5376,-1.5413,-1.5412,-1.5466,-1.5442,-1.5462,-1.5437,-1.5491,-1.551,-1.541,-1.5409,-1.5409,-1.5409,-1.5409,-1.5252,-1.5275,-1.5296,-1.5357,-1.5402,-1.5425,-1.5477,-1.5487,-1.5497,-1.5517,-1.554,-1.554,-1.5542,-1.5527,-1.5527,-1.5527,-1.5528,-1.5528,-1.5528,-1.5302,-1.5324,-1.5366,-1.5412,-1.544,-1.5478,-1.5515,-1.5543,-1.5576,-1.558,-1.558,-1.558,-1.5493,-1.5472,-1.5532,-1.5531,-1.553,-1.553,-1.553,-1.5398,-1.5378,-1.5443,-1.5471,-1.5526,-1.5571,-1.5584,-1.564,-1.5664,-1.569,-1.5685,-1.5619,-1.5618,-1.5611,-1.5594,-1.5681,-1.5681,-1.5681,-1.5681,-1.5445,-1.5445,-1.5515,-1.556,-1.5604,-1.5622,-1.5697,-1.5727,-1.5754,-1.577,-1.5759,-1.5736,-1.5729,-1.5732,-1.5723,-1.5707,-1.5821,-1.5822,-1.5822,-1.5506,-1.5511,-1.5572,-1.5599,-1.5643,-1.568,-1.5751,-1.5802,-1.5829,-1.5828,-1.5784,-1.5778,-1.5741,-1.5728,-1.5727,-1.5713,-1.5683,0,0]}]]